TimeMDT,TemperatureF,Dew PointF,Humidity,Sea Level PressureIn,VisibilityMPH,Wind Direction,Wind SpeedMPH,Gust SpeedMPH,PrecipitationIn,Events,Conditions,WindDirDegrees,DateUTC
12:53 AM,36.0,33.1,89,29.86,10.0,SE,8.1,-,N/A,,Clear,140,2012-10-22 06:53:00
1:53 AM,37.9,35.1,89,29.84,10.0,SSE,9.2,-,N/A,,Clear,160,2012-10-22 07:53:00
2:53 AM,37.9,35.1,89,29.83,10.0,SSE,10.4,-,N/A,,Clear,150,2012-10-22 08:53:00
3:53 AM,41.0,37.0,86,29.79,10.0,South,18.4,-,N/A,,Partly Cloudy,170,2012-10-22 09:53:00
4:53 AM,39.0,35.1,86,29.81,10.0,NNW,6.9,-,N/A,,Partly Cloudy,340,2012-10-22 10:53:00
5:53 AM,37.0,35.1,93,29.85,10.0,NNW,9.2,-,N/A,,Clear,330,2012-10-22 11:53:00
6:53 AM,37.0,35.1,93,29.85,10.0,NW,8.1,-,N/A,,Mostly Cloudy,320,2012-10-22 12:53:00
7:53 AM,37.9,35.1,89,29.88,10.0,West,4.6,-,0.00,Rain,Light Rain,270,2012-10-22 13:53:00
8:53 AM,39.0,37.0,93,29.86,9.0,Calm,Calm,-,0.01,Rain,Light Rain,0,2012-10-22 14:53:00
9:53 AM,41.0,39.0,93,29.85,10.0,Calm,Calm,-,0.01,Rain,Light Rain,0,2012-10-22 15:53:00
10:51 AM,42.8,39.2,87,29.83,0.8,ESE,6.9,-,0.02,Rain,Light Rain,120,2012-10-22 16:51:00
11:02 AM,39.2,39.2,100,29.82,0.5,SE,8.1,-,0.00,Fog-Rain,Light Rain,140,2012-10-22 17:02:00
11:05 AM,41.0,39.2,93,29.82,1.2,SE,8.1,-,0.00,Rain,Light Rain,140,2012-10-22 17:05:00
11:07 AM,41.0,39.2,93,29.82,4.0,SE,9.2,-,0.00,Rain,Light Rain,140,2012-10-22 17:07:00
11:53 AM,43.0,42.1,97,29.81,9.0,SSE,8.1,-,0.01,Rain,Light Rain,160,2012-10-22 17:53:00
12:07 PM,44.6,42.8,93,29.80,9.0,SE,10.4,-,0.00,Rain,Light Rain,140,2012-10-22 18:07:00
12:53 PM,46.0,44.1,93,29.77,10.0,SSE,9.2,-,0.00,Rain,Light Rain,160,2012-10-22 18:53:00
1:53 PM,46.9,44.1,90,29.71,10.0,South,13.8,20.7,0.00,Rain,Light Rain,180,2012-10-22 19:53:00
2:44 PM,48.2,42.8,82,29.69,10.0,SSE,17.3,26.5,0.00,,Mostly Cloudy,150,2012-10-22 20:44:00
2:53 PM,48.0,43.0,83,29.67,10.0,SSE,18.4,25.3,0.00,,Mostly Cloudy,150,2012-10-22 20:53:00
3:17 PM,46.4,42.8,87,29.66,10.0,SSE,20.7,26.5,N/A,,Mostly Cloudy,150,2012-10-22 21:17:00
3:37 PM,46.4,42.8,87,29.66,10.0,SSE,20.7,26.5,N/A,,Overcast,150,2012-10-22 21:37:00
3:53 PM,48.0,43.0,83,29.61,10.0,SSE,20.7,27.6,N/A,,Overcast,150,2012-10-22 21:53:00
4:50 PM,48.2,42.8,82,29.62,10.0,SSE,18.4,27.6,0.01,,Overcast,160,2012-10-22 22:50:00
4:53 PM,48.0,44.1,86,29.59,10.0,SSE,16.1,25.3,0.01,Rain,Light Rain,160,2012-10-22 22:53:00
5:46 PM,46.4,42.8,87,29.61,10.0,South,19.6,27.6,0.00,Rain,Light Rain,170,2012-10-22 23:46:00
5:53 PM,46.9,43.0,86,29.59,10.0,South,20.7,-,0.00,Rain,Light Rain,170,2012-10-22 23:53:00
6:00 PM,46.4,44.6,93,29.60,10.0,SSE,18.4,-,0.00,Rain,Light Rain,160,2012-10-23 00:00:00
6:53 PM,46.9,43.0,86,29.57,10.0,SSE,17.3,-,0.00,,Clear,150,2012-10-23 00:53:00
7:53 PM,46.0,43.0,89,29.56,10.0,ESE,11.5,-,N/A,,Clear,120,2012-10-23 01:53:00
8:53 PM,43.0,41.0,93,29.62,10.0,North,10.4,27.6,N/A,,Scattered Clouds,350,2012-10-23 02:53:00
9:19 PM,42.8,41.0,93,29.63,10.0,NNW,8.1,-,0.00,Rain,Light Rain,330,2012-10-23 03:19:00
9:32 PM,42.8,39.2,87,29.63,10.0,WNW,9.2,-,0.00,,Mostly Cloudy,290,2012-10-23 03:32:00
9:40 PM,42.8,39.2,87,29.63,10.0,NW,4.6,-,0.00,,Mostly Cloudy,320,2012-10-23 03:40:00
9:50 PM,42.8,39.2,87,29.63,10.0,WNW,6.9,-,0.00,,Scattered Clouds,290,2012-10-23 03:50:00
9:53 PM,42.1,39.9,92,29.62,10.0,WNW,8.1,-,0.00,,Scattered Clouds,290,2012-10-23 03:53:00
10:53 PM,46.0,41.0,83,29.60,10.0,Variable,5.8,-,N/A,,Mostly Cloudy,0,2012-10-23 04:53:00